Weather History for Baudette, MN

Change the Weather History Date:

Saturday, October 13, 2012

  Actual Average Record
Temperature  
Mean Temperature 45 °F -  
Max Temperature 60 °F 56 °F 78 °F (1934)
Min Temperature 30 °F 34 °F 15 °F (1946)
Degree Days  
Heating Degree Days 20    
Moisture  
Dew Point 30 °F    
Average Humidity 61    
Maximum Humidity 80    
Minimum Humidity 44    
Precipitation  
Precipitation 0.00 in - - ()
Sea Level Pressure  
Sea Level Pressure 29.76 in    
Wind  
Wind Speed 5 mph (SSE)    
Max Wind Speed 9 mph    
Max Gust Speed -    
Visibility 10 miles    
Events      
Averages and records for this station are not official NWS values.
T = Trace of Precipitation, MM = Missing Value Source: NWS Daily Summary

Daily Weather History Graph

Daily Weather History Graph

Search for Another Location

Airport:

Trip Planner

Search our weather history database for the weather conditions in past years. The results will help you decide how hot, cold, wet, or windy it might be!

Date:

Astronomy

Oct. 13, 2012 Rise Set
Actual Time 7:36 AM CDT 6:31 PM CDT
Civil Twilight 7:04 AM CDT 7:03 PM CDT
Nautical Twilight 6:28 AM CDT 7:39 PM CDT
Astronomical Twilight 5:51 AM CDT 8:16 PM CDT
Moon 5:19 AM CDT (10/13) 5:20 PM CDT (10/13)
Length of Visible Light 11h 58m
Length of Day
10h 55m
Waning Crescent, 5% of the Moon is Illuminated
Oct 13
Waning Crescent
Oct 15
New
Oct 21
First Quarter
Oct 29
Full
Nov 6
Last Quarter

Hourly Weather History & Observations

Time (CDT) Temp. Windchill Dew Point Humidity Pressure Visibility Wind Dir Wind Speed Gust Speed Precip Events Conditions
12:53 AM 34.0 °F 29.8 °F 19.9 °F 56% 29.91 in 10.0 mi SE 4.6 mph - N/A   Clear
1:53 AM 32.0 °F 27.5 °F 19.9 °F 61% 29.89 in 10.0 mi SE 4.6 mph - N/A   Clear
2:53 AM 32.0 °F 24.8 °F 19.0 °F 59% 29.84 in 10.0 mi SE 8.1 mph - N/A   Clear
3:53 AM 30.9 °F 26.2 °F 19.0 °F 61% 29.81 in 10.0 mi SE 4.6 mph - N/A   Clear
4:53 AM 30.9 °F 26.2 °F 19.9 °F 64% 29.78 in 10.0 mi SE 4.6 mph - N/A   Clear
5:53 AM 32.0 °F 27.5 °F 19.9 °F 61% 29.76 in 10.0 mi SE 4.6 mph - N/A   Clear
6:53 AM 30.9 °F 26.2 °F 21.0 °F 67% 29.76 in 10.0 mi SSE 4.6 mph - N/A   Clear
7:53 AM 30.9 °F 26.2 °F 21.0 °F 67% 29.75 in 10.0 mi SE 4.6 mph - N/A   Clear
8:53 AM 36.0 °F 33.3 °F 24.1 °F 62% 29.75 in 10.0 mi SE 3.5 mph - N/A   Clear
9:53 AM 44.1 °F 41.5 °F 27.0 °F 51% 29.73 in 10.0 mi SSE 4.6 mph - N/A   Clear
10:53 AM 50.0 °F - 32.0 °F 50% 29.73 in 10.0 mi South 8.1 mph - N/A   Clear
11:53 AM 52.0 °F - 34.0 °F 50% 29.72 in 10.0 mi SSW 9.2 mph - N/A   Clear
12:53 PM 55.0 °F - 36.0 °F 49% 29.70 in 10.0 mi South 6.9 mph - N/A   Clear
1:53 PM 57.0 °F - 37.9 °F 49% 29.69 in 10.0 mi South 8.1 mph - N/A   Clear
2:53 PM 57.2 °F - 37.4 °F 48% 29.66 in 10.0 mi WSW 3.5 mph - N/A   Clear
3:53 PM 59.0 °F - 37.9 °F 46% 29.69 in 10.0 mi Variable 4.6 mph - N/A   Clear
4:53 PM 60.1 °F - 37.9 °F 44% 29.70 in 10.0 mi Calm Calm - N/A   Clear
5:53 PM 51.1 °F - 39.0 °F 63% 29.73 in 10.0 mi NNW 9.2 mph - N/A   Clear
6:53 PM 44.6 °F 41.4 °F 35.6 °F 71% 29.72 in 10.0 mi NNW 5.8 mph - N/A   Clear
7:53 PM 43.0 °F 38.8 °F 37.0 °F 80% 29.78 in 10.0 mi NNW 6.9 mph - N/A   Clear
8:53 PM 43.0 °F 38.8 °F 37.0 °F 80% 29.80 in 10.0 mi North 6.9 mph - N/A   Scattered Clouds
9:53 PM 43.0 °F 41.3 °F 36.0 °F 76% 29.82 in 10.0 mi NE 3.5 mph - N/A   Overcast
10:53 PM 41.0 °F 39.0 °F 35.1 °F 79% 29.83 in 10.0 mi East 3.5 mph - N/A   Scattered Clouds